Погода в Бочкарях

Россия / Алтайский край     52°53′05″N   85°45′51″E
темп.,
°C
ветер,
м/с
пор.,
м/с
влажн.,
%
обл.,
%
осадки,
мм/ч
давл.,
гПа
погр.,
м
19 мая, ср
ср1901:00+13зсз1191100 1.6 100611
04:00+13юз3695100 1.4 1004153
07:00+14зсз3793100 2.6 1003260
10:00+14сз4689100 1.6 1004482
13:00+14с5679100 2.4 1004756
16:00+10с6991100 0.6 1006591
19:00+12с4872100 3.2 1006838
22:00+9сз357399 0.1 100885
20 мая, чт
чт2001:00+7с5107499 0.2 1009355
04:00+6ссз5869100 0.1 1009623
07:00+4ссз4769100 0.5 1011487
10:00+7ссз684153 0.0 10122369
13:00+9сз6738100 0.0 10132524
16:00+8ссз4650100 0.6 10141458
19:00+6с676499 1.9 10161129
22:00+4ссз4867100 0.8 1018373
21 мая, пт
пт2101:00+2сз3680100 0.8 1019239
04:000сз378177 0.0 1021175
07:00+1ссз36785 0.0 1024234
10:00+6сз336312 0.0 10251046
13:00+9ссз325078 0.3 10251697
16:00+10сз324142 0.1 10251957
19:00+10зсз22420 0.1 10261238
22:00+6зюз225128 0.0 102815
22 мая, сб
сб2201:00+4зюз2255100 0.0 102914
04:00+3юз226698 0.0 102910
07:00+5ююз126646 0.0 103072
10:00+10ююв1151100 0.0 1030660
13:00+13ююв224767 0.0 10281487
16:00+14юз1142100 0.0 10271804
19:00+14зюз124311 0.0 10271802
22:00+9юз11615 0.0 102810
23 мая, вс
вс2301:00+7зюз006350 0.0 102810
04:00+7ююв226698 0.0 102810
07:00+9ююв22677 0.0 102976
10:00+12ююв2260100 0.0 1028347
13:00+16вюв224732 0.0 1027844
16:00+19вюв224596 0.0 10251071
19:00+18вюв22520 0.0 1024761
22:00+13вюв11670 0.0 102310